Regional Weather Roundup
Issued by NWS

Home | Current Version | Previous Version | Graphics & Text | Print | Product List | Glossary On
Versions: 1 2 3 4 5 6 7 8 9 10 11 12 13 14 15 16 17 18 19 20 21 22 23 24 25 26 27 28 29 30 31 32 33 34 35 36 37 38 39 40 41 42 43 44 45 46 47 48 49 50
000
ASUS43 KDTX 252201
RWRMI
MICHIGAN HOURLY REGIONAL WEATHER ROUNDUP
NATIONAL WEATHER SERVICE DETROIT/PONTIAC MI
500 PM EST TUE NOV 25 2014

NOTE: "FAIR" INDICATES FEW OR NO CLOUDS BELOW 12,000 FEET WITH NO
SIGNIFICANT WEATHER AND/OR OBSTRUCTION TO VISIBILITY.

MIZ047>049-052>055-059>063-066>070-074>076-081>083-252300-
SOUTHEAST LOWER MICHIGAN

CITY           SKY/WX    TMP DP  RH WIND       PRES   REMARKS
ADRIAN         CLOUDY    28  21  75 W9        30.14R WCI  19
ALMA           CLOUDY    31  23  73 W12       30.08R WCI  21
ANN ARBOR      CLOUDY    30  21  69 W12       30.10R WCI  20
BAD AXE        CLOUDY    32  26  78 W13       30.04R WCI  22
CARO           CLOUDY    32  25  74 SW10      30.05R WCI  24
DETROIT CITY   CLOUDY    33  21  61 W10G17    30.11R WCI  25
DETROIT        CLOUDY    31  22  69 SW12      30.12R WCI  22
FLINT          CLOUDY    33  24  69 W10       30.08R WCI  25
GROSSE ILE     CLOUDY    30  23  74 W10G16    30.11R WCI  21
HILLSDALE      CLOUDY    28  22  79 W8        30.10R WCI  20
HOWELL         CLOUDY    30  23  77 W13       30.08R WCI  20

CITY           SKY/WX    TMP DP  RH WIND       PRES   REMARKS
JACKSON        CLOUDY    28  22  78 W7        30.10R WCI  21
LAMBERTVILLE   CLOUDY    32  23  69 W9        30.13S WCI  24
LANSING        FLURRIES  30  21  69 W14G21    30.09R WCI  19
LAPEER         CLOUDY    31  24  76 W8        30.06R WCI  24
MASON          CLOUDY    31  23  74 SW8       30.09R WCI  23
MONROE         CLOUDY    30  23  74 W13       30.12R WCI  20
MT. CLEMENS    CLOUDY    32  23  68 W13G18    30.07R WCI  23
PONTIAC        CLOUDY    30  22  72 W12       30.07R WCI  20
PORT HOPE        N/A     33  23  66 W9G16     30.01R WCI  25
PORT HURON     CLOUDY    32  25  74 SW7       30.09R WCI  26
TRI CITIES     CLOUDY    33  23  66 W13       30.07R WCI  24
TROY           CLOUDY    33  23  67 SW9       30.11R WCI  25
SAGINAW HB     CLOUDY    32  27  80 SW9       30.06R WCI  24
$$
MIZ043>046-050>051-056>058-064>065-071>073-077>080-252300-
SOUTHWEST LOWER MICHIGAN

CITY           SKY/WX    TMP DP  RH WIND       PRES   REMARKS
BATTLE CREEK   CLOUDY    30  20  66 W8        30.11R WCI  22
BENTON HARBOR  CLOUDY    28  20  71 W8        30.13R WCI  20
BIG RAPIDS     CLOUDY    28  25  86 W8        30.05R WCI  20
COLDWATER      CLOUDY    29  23  80 W8        30.12R WCI  21
FREMONT        CLOUDY    28  24  84 W6        30.09R WCI  21
HOLLAND        CLOUDY    31  22  69 W12       30.12R WCI  22
GRAND RAPIDS   FLURRIES  30  23  75 W13       30.10R WCI  20
IONIA          CLOUDY    31  24  75 W10       30.08R WCI  22
KALAMAZOO      CLOUDY    29  20  69 W9        30.12R WCI  20
LUDINGTON      CLOUDY    29  24  80 W5        30.09R WCI  24
MARSHALL       CLOUDY    28  21  77 W13       30.10R WCI  17
MOUNT PLEASANT CLOUDY    31  23  72 W7        30.06R WCI  24
MUSKEGON       CLOUDY    30  21  69 W8        30.11R WCI  22
SOUTH HAVEN    CLOUDY    31  23  74 W12       30.12S WCI  21
$$
MIZ016>042-252300-
NORTHERN LOWER MICHIGAN

CITY           SKY/WX    TMP DP  RH WIND       PRES   REMARKS
ALPENA         CLOUDY    28  23  81 NW3       30.00R
BEAVER ISLAND  CLOUDY    29  21  71 W7        30.02R WCI  22
BELLAIRE       CLOUDY    30  23  75 CALM      30.03R
CADILLAC       CLOUDY    26  22  85 W7        30.01R WCI  18
CHARLEVOIX     CLOUDY    29  22  75 W13       30.04R WCI  19
FRANKFORT      CLOUDY    28  23  81 W8        30.06R WCI  20
GAYLORD        CLOUDY    26  21  81 W7        29.97R WCI  18
GRAYLING       CLOUDY    28  25  87 W6        30.01R WCI  22
HARBOR SPRINGS CLOUDY    28  24  82 NW6       30.00R WCI  22
HOUGHTON LAKE  CLOUDY    28  22  78 W9        30.02R WCI  19
MANISTEE       CLOUDY    28  21  74 W6        30.07R WCI  22
OSCODA         CLOUDY    31  26  81 W9        30.01R WCI  23
PELLSTON       CLOUDY    28  20  71 NW9       30.00R WCI  19
ROGERS CITY    MOCLDY    27  26  94 W5        30.00R WCI  22
TRAVERSE CITY  FLURRIES  29  22  75 W7        30.04R WCI  22
$$
MIZ007>008-015-252300-
EASTERN UPPER MICHIGAN

CITY           SKY/WX    TMP DP  RH WIND       PRES   REMARKS
KINROSS        CLOUDY    27  25  93 W8        29.96R WCI  18
MACKINAC ISLAN MOCLDY    28  24  86 NW8G18    29.98R WCI  19
NEWBERRY       CLOUDY    24  17  74 NW5       29.98R WCI  19
S. S. MARIE    FLURRIES  26  22  84 NW5       29.94F WCI  20
MUNISING         N/A     27  15  61 W5        30.01R WCI  22
$$
MIZ004>006-011>014-085-252300-
CENTRAL UPPER MICHIGAN

CITY           SKY/WX    TMP DP  RH WIND       PRES   REMARKS
MANISTIQUE     PTCLDY    24  19  80 W5        30.02R WCI  18
ESCANABA       MOCLDY    25  12  58 N6        30.03R WCI  18
MENOMINEE      CLOUDY    27  16  63 W6        30.04R WCI  20
SAWYER-GWINN   CLEAR     21  12  68 CALM      29.97R
$$
MIZ001>003-009>011-084-252300-
WESTERN UPPER MICHIGAN

CITY           SKY/WX    TMP DP  RH WIND       PRES   REMARKS
IRON MOUNTAIN  PTCLDY    22  10  60 W5        29.99R WCI  16
HOUGHTON       CLOUDY    20  11  68 W3        29.97R
COPPER HARBOR    N/A     22  11  62 VRB3      30.00R
IRONWOOD       CLEAR     19  12  73 SW5       29.96R WCI  13
$$

ABBREVIATIONS USED IN REMARKS
   TC - TEMPERATURE IN CELSIUS
  WCI - WIND CHILL INDEX
   HX - HEAT INDEX
  VSB - VISIBILITY



USA.gov is the U.S. government's official web portal to all federal, state and local government web resources and services.